Total_Precipitation_Accumulation
0.60 0.59 0.59 0.54 0.52 0.54 0.59 0.76 0.98 0.82 0.41 0.27 0.32 0.33 0.34 0.39 0.45 0.48 0.48 0.57 0.66 0.71 0.77 0.84 0.93 1.03 1.19 1.49 2.06 2.82 3.44 3.83 3.79 3.50 3.26 3.23 3.51 3.90
0.72 0.70 0.67 0.65 0.65 0.63 0.65 0.69 0.86 1.05 0.78 0.33 0.34 0.39 0.44 0.46 0.51 0.51 0.51 0.59 0.65 0.75 0.83 0.86 0.94 1.04 1.15 1.30 1.53 2.05 2.74 3.28 3.66 3.82 3.75 3.67 3.74 3.99
0.78 0.80 0.79 0.78 0.80 0.79 0.79 0.80 0.84 1.02 1.05 0.49 0.33 0.39 0.52 0.57 0.57 0.54 0.54 0.57 0.59 0.67 0.79 0.85 0.94 1.04 1.12 1.22 1.37 1.63 2.15 2.70 3.18 3.68 4.00 4.03 3.96 3.94
0.80 0.85 0.86 0.86 0.89 0.89 0.94 0.93 0.90 0.94 1.06 0.78 0.45 0.43 0.52 0.58 0.64 0.64 0.58 0.58 0.58 0.62 0.74 0.86 0.92 0.99 1.06 1.14 1.26 1.44 1.74 2.24 2.66 3.01 3.49 3.75 3.79 3.95
0.74 0.81 0.86 0.93 0.98 0.96 0.97 0.97 0.92 0.86 0.90 0.89 0.62 0.48 0.52 0.58 0.65 0.69 0.68 0.68 0.64 0.66 0.69 0.79 0.89 0.95 1.02 1.09 1.17 1.26 1.40 1.65 2.08 2.59 3.09 3.49 3.56 3.56
0.71 0.76 0.83 0.95 1.04 1.12 1.19 1.10 1.02 1.06 1.06 1.06 0.86 0.67 0.62 0.63 0.79 0.83 0.82 0.77 0.74 0.67 0.69 0.72 0.82 0.93 0.96 0.97 1.00 1.08 1.20 1.45 1.82 2.29 2.69 3.14 3.40 3.36
0.75 0.76 0.79 0.96 1.18 1.39 1.52 1.47 1.43 1.48 1.42 1.37 1.19 0.96 0.81 0.82 0.90 0.88 0.93 0.84 0.83 0.80 0.77 0.68 0.69 0.71 0.77 0.87 0.94 0.99 1.08 1.23 1.45 1.79 2.25 2.66 3.06 3.32
0.84 0.77 0.75 0.83 0.95 1.14 1.37 1.45 1.55 1.67 1.72 1.67 1.53 1.31 1.00 0.89 0.94 1.11 1.24 1.24 1.11 0.82 0.81 0.78 0.77 0.83 0.78 0.78 0.89 0.95 1.00 1.11 1.31 1.55 1.85 2.18 2.51 2.95
0.75 0.71 0.71 0.70 0.76 0.74 0.87 0.97 1.07 1.25 1.50 1.68 1.76 1.43 1.14 1.02 1.20 1.43 1.48 1.45 1.22 1.01 1.08 1.15 0.96 0.93 0.86 0.92 1.05 0.99 1.02 1.12 1.24 1.38 1.60 1.89 2.14 2.48
0.68 0.70 0.71 0.68 0.68 0.76 0.84 0.87 0.81 0.84 1.07 1.32 1.48 1.34 1.24 1.25 1.47 1.75 1.89 1.94 1.60 1.26 1.27 1.49 1.15 1.00 0.92 0.94 1.11 1.06 1.04 1.10 1.19 1.31 1.45 1.59 1.81 2.13
0.67 0.79 0.84 0.75 0.79 0.98 1.11 1.08 0.88 0.76 0.83 1.15 1.42 1.47 1.51 1.71 1.95 2.32 2.60 2.67 2.35 1.71 1.46 1.60 1.38 1.16 1.06 1.00 1.07 1.16 1.13 1.11 1.15 1.25 1.40 1.52 1.66 1.90
0.69 0.81 1.07 1.05 1.03 1.11 1.18 1.21 1.16 0.88 0.79 0.84 0.94 1.06 1.10 1.19 1.56 1.93 2.21 2.47 2.43 2.15 1.64 1.62 1.59 1.52 1.57 1.21 1.01 0.96 1.01 1.15 1.20 1.24 1.36 1.50 1.67 1.71
0.82 0.88 1.01 1.10 1.10 1.12 1.19 1.17 1.21 1.15 1.11 1.09 1.03 0.97 0.99 1.12 1.28 1.55 1.81 2.09 2.31 2.16 1.72 1.81 1.95 1.81 1.76 1.46 1.12 1.01 0.92 0.92 0.99 1.14 1.31 1.50 1.66 1.74
0.90 0.82 0.90 1.03 1.10 1.13 1.09 1.10 1.19 1.24 1.18 1.15 1.08 1.01 0.98 1.04 1.11 1.26 1.52 1.68 1.83 1.89 1.72 1.88 2.18 1.99 1.90 1.61 1.26 1.16 1.08 1.00 0.95 1.01 1.12 1.45 1.63 1.75
0.97 1.11 1.07 1.04 1.00 0.95 0.94 1.00 1.02 0.99 1.04 1.03 0.93 0.83 0.79 0.84 0.96 1.12 1.31 1.49 1.63 1.70 1.74 1.76 1.89 1.93 2.05 1.91 1.42 1.21 1.23 1.23 1.13 1.09 1.14 1.25 1.38 1.53
0.97 1.05 1.05 0.95 0.85 0.81 0.82 0.84 0.83 0.90 1.01 1.01 0.89 0.79 0.75 0.82 0.94 1.04 1.21 1.36 1.60 1.65 1.61 1.65 1.76 2.04 2.23 1.91 1.65 1.43 1.25 1.38 1.33 1.25 1.24 1.26 1.31 1.35
1.19 1.17 1.06 0.92 0.84 0.75 0.71 0.68 0.69 0.81 0.93 0.92 0.93 0.91 0.88 0.90 0.94 0.97 1.14 1.30 1.49 1.48 1.49 1.61 1.77 1.98 2.18 2.18 2.07 1.68 1.41 1.35 1.39 1.41 1.37 1.39 1.40 1.38
1.20 1.12 0.94 0.82 0.77 0.73 0.72 0.71 0.69 0.72 0.76 0.83 0.89 0.92 0.95 0.97 0.97 0.98 1.13 1.30 1.36 1.33 1.37 1.51 1.80 2.20 2.48 2.51 2.20 1.87 1.59 1.48 1.53 1.60 1.50 1.44 1.42 1.33
0.99 0.87 0.78 0.76 0.73 0.71 0.71 0.71 0.69 0.65 0.71 0.82 0.89 0.93 0.97 1.01 1.02 1.03 1.08 1.18 1.24 1.26 1.32 1.45 1.74 2.19 2.41 2.28 2.16 1.90 1.70 1.56 1.62 1.80 1.71 1.44 1.33 1.26
0.78 0.78 0.75 0.73 0.72 0.71 0.71 0.72 0.70 0.69 0.73 0.79 0.84 0.87 0.92 1.01 1.03 0.97 0.99 1.11 1.21 1.27 1.35 1.45 1.67 1.95 2.17 1.94 1.88 1.95 1.85 1.73 1.73 1.87 1.80 1.54 1.41 1.45
0.69 0.71 0.69 0.73 0.75 0.73 0.71 0.71 0.72 0.74 0.73 0.75 0.77 0.78 0.83 0.93 0.96 0.90 0.94 1.04 1.24 1.35 1.37 1.37 1.51 1.76 2.02 2.11 2.11 2.00 1.98 1.95 1.83 1.85 1.79 1.72 1.66 1.62
0.68 0.71 0.68 0.69 0.74 0.75 0.74 0.73 0.74 0.73 0.71 0.72 0.73 0.74 0.78 0.89 0.93 0.89 0.95 1.06 1.14 1.21 1.25 1.30 1.43 1.78 2.19 2.32 2.13 1.93 1.94 2.03 2.11 2.02 1.90 1.76 1.79 1.77
0.76 0.74 0.68 0.64 0.66 0.71 0.74 0.74 0.74 0.70 0.67 0.72 0.75 0.76 0.79 0.87 0.88 0.92 0.96 1.01 1.10 1.16 1.22 1.37 1.54 1.79 2.04 2.03 2.01 1.93 1.82 1.84 1.93 2.04 2.23 1.97 1.56 1.34